QPF
0.00 0.00 0.00 0.00 0.00 0.00 0.00 0.00 0.00 0.00 0.00 0.00 0.00 0.00 0.00 0.00 0.00 0.00 0.00 0.00 0.00 0.00 0.00 0.00 0.00 0.00 0.00 0.00 0.00 0.00 0.00 0.00 0.00 0.00 0.00 0.00 0.00 0.00 0.00 0.00 0.00 0.00 0.00 0.00 0.00
0.00 0.00 0.00 0.00 0.00 0.00 0.00 0.00 0.00 0.00 0.00 0.00 0.00 0.00 0.00 0.00 0.00 0.00 0.00 0.00 0.00 0.00 0.00 0.00 0.00 0.00 0.00 0.00 0.00 0.00 0.00 0.00 0.00 0.00 0.00 0.00 0.00 0.00 0.00 0.00 0.00 0.00 0.00 0.00 0.00
0.00 0.00 0.00 0.00 0.00 0.00 0.00 0.00 0.00 0.00 0.00 0.00 0.00 0.00 0.00 0.00 0.00 0.00 0.00 0.00 0.00 0.00 0.00 0.00 0.00 0.00 0.00 0.00 0.00 0.00 0.00 0.00 0.00 0.00 0.00 0.00 0.00 0.00 0.00 0.00 0.00 0.00 0.00 0.00 0.00
0.00 0.00 0.00 0.00 0.00 0.00 0.00 0.00 0.00 0.00 0.00 0.00 0.00 0.00 0.00 0.00 0.00 0.00 0.00 0.00 0.00 0.00 0.00 0.00 0.00 0.00 0.00 0.00 0.00 0.00 0.00 0.00 0.00 0.00 0.00 0.00 0.00 0.00 0.00 0.00 0.00 0.00 0.00 0.00 0.00
0.00 0.00 0.00 0.00 0.00 0.00 0.00 0.00 0.00 0.00 0.00 0.00 0.00 0.00 0.00 0.00 0.00 0.00 0.00 0.00 0.00 0.00 0.00 0.00 0.00 0.00 0.00 0.00 0.00 0.00 0.00 0.00 0.00 0.00 0.00 0.00 0.00 0.00 0.00 0.00 0.00 0.00 0.00 0.00 0.00
0.00 0.00 0.00 0.00 0.00 0.00 0.00 0.00 0.00 0.00 0.00 0.00 0.00 0.00 0.00 0.00 0.00 0.00 0.00 0.00 0.00 0.00 0.00 0.00 0.00 0.00 0.00 0.00 0.00 0.00 0.00 0.00 0.00 0.00 0.00 0.00 0.00 0.00 0.00 0.00 0.00 0.00 0.00 0.00 0.00
0.00 0.00 0.00 0.00 0.00 0.00 0.00 0.00 0.00 0.00 0.00 0.00 0.00 0.00 0.00 0.00 0.00 0.00 0.00 0.00 0.00 0.00 0.00 0.00 0.00 0.00 0.00 0.00 0.00 0.00 0.00 0.00 0.00 0.00 0.00 0.00 0.00 0.00 0.00 0.00 0.00 0.00 0.00 0.00 0.00
0.00 0.00 0.00 0.00 0.00 0.00 0.00 0.00 0.00 0.00 0.00 0.00 0.00 0.00 0.00 0.00 0.00 0.00 0.00 0.00 0.00 0.00 0.00 0.00 0.00 0.00 0.00 0.00 0.00 0.00 0.00 0.00 0.00 0.00 0.00 0.00 0.00 0.00 0.00 0.00 0.00 0.00 0.00 0.00 0.00
0.00 0.00 0.00 0.00 0.00 0.00 0.00 0.00 0.00 0.00 0.00 0.00 0.00 0.00 0.00 0.00 0.00 0.00 0.00 0.00 0.00 0.00 0.00 0.00 0.00 0.00 0.00 0.00 0.00 0.00 0.00 0.00 0.00 0.00 0.00 0.00 0.00 0.00 0.00 0.00 0.00 0.00 0.00 0.00 0.00
0.00 0.00 0.00 0.00 0.00 0.00 0.00 0.00 0.00 0.00 0.00 0.00 0.00 0.00 0.00 0.00 0.00 0.00 0.00 0.00 0.00 0.00 0.00 0.00 0.00 0.00 0.00 0.00 0.00 0.00 0.00 0.00 0.00 0.00 0.00 0.00 0.00 0.00 0.00 0.00 0.00 0.00 0.00 0.00 0.00
0.00 0.00 0.00 0.00 0.00 0.00 0.00 0.00 0.00 0.00 0.00 0.00 0.00 0.00 0.00 0.00 0.00 0.00 0.00 0.00 0.00 0.00 0.00 0.00 0.00 0.00 0.00 0.00 0.00 0.00 0.00 0.00 0.00 0.00 0.00 0.00 0.00 0.00 0.00 0.00 0.00 0.00 0.00 0.00 0.00
0.00 0.00 0.00 0.00 0.00 0.00 0.00 0.00 0.00 0.00 0.00 0.00 0.00 0.00 0.00 0.00 0.00 0.00 0.00 0.00 0.00 0.00 0.00 0.00 0.00 0.00 0.00 0.00 0.00 0.00 0.00 0.00 0.00 0.00 0.00 0.00 0.00 0.00 0.00 0.00 0.00 0.00 0.00 0.00 0.00
0.00 0.00 0.00 0.00 0.00 0.00 0.00 0.00 0.00 0.00 0.00 0.00 0.00 0.00 0.00 0.00 0.00 0.00 0.00 0.00 0.00 0.00 0.00 0.00 0.00 0.00 0.00 0.00 0.00 0.00 0.00 0.00 0.00 0.00 0.00 0.00 0.00 0.00 0.00 0.00 0.00 0.00 0.00 0.00 0.00
0.00 0.00 0.00 0.00 0.00 0.00 0.00 0.00 0.00 0.00 0.00 0.00 0.00 0.00 0.00 0.00 0.00 0.00 0.00 0.00 0.00 0.00 0.00 0.00 0.00 0.00 0.00 0.00 0.00 0.00 0.00 0.00 0.00 0.00 0.00 0.00 0.00 0.00 0.00 0.00 0.00 0.00 0.00 0.00 0.00
0.00 0.00 0.00 0.00 0.00 0.00 0.00 0.00 0.00 0.00 0.00 0.00 0.00 0.00 0.00 0.00 0.00 0.00 0.00 0.00 0.00 0.00 0.00 0.00 0.00 0.00 0.00 0.00 0.00 0.00 0.00 0.00 0.00 0.00 0.00 0.00 0.00 0.00 0.00 0.00 0.00 0.00 0.00 0.00 0.00
0.00 0.00 0.00 0.00 0.00 0.00 0.00 0.00 0.00 0.00 0.00 0.00 0.00 0.00 0.00 0.00 0.00 0.00 0.00 0.00 0.00 0.00 0.00 0.00 0.00 0.00 0.00 0.00 0.00 0.00 0.00 0.00 0.00 0.00 0.00 0.00 0.00 0.00 0.00 0.00 0.00 0.00 0.00 0.00 0.00
0.00 0.00 0.00 0.00 0.00 0.00 0.00 0.00 0.00 0.00 0.00 0.00 0.00 0.00 0.00 0.00 0.00 0.00 0.00 0.00 0.00 0.00 0.00 0.00 0.00 0.00 0.00 0.00 0.00 0.00 0.00 0.00 0.00 0.00 0.00 0.00 0.00 0.00 0.00 0.00 0.00 0.00 0.00 0.00 0.00
0.00 0.00 0.00 0.00 0.00 0.00 0.00 0.00 0.00 0.00 0.00 0.00 0.00 0.00 0.00 0.00 0.00 0.00 0.00 0.00 0.00 0.00 0.00 0.00 0.00 0.00 0.00 0.00 0.00 0.00 0.00 0.00 0.00 0.00 0.00 0.00 0.00 0.00 0.00 0.00 0.00 0.00 0.00 0.00 0.00
0.00 0.00 0.00 0.00 0.00 0.00 0.00 0.00 0.00 0.00 0.00 0.00 0.00 0.00 0.00 0.00 0.00 0.00 0.00 0.00 0.00 0.00 0.00 0.00 0.00 0.00 0.00 0.00 0.00 0.00 0.00 0.00 0.00 0.00 0.00 0.00 0.00 0.00 0.00 0.00 0.00 0.00 0.00 0.00 0.01
0.00 0.00 0.00 0.00 0.00 0.00 0.00 0.00 0.00 0.00 0.00 0.00 0.00 0.00 0.00 0.00 0.00 0.00 0.00 0.00 0.00 0.00 0.00 0.00 0.00 0.00 0.00 0.00 0.00 0.00 0.00 0.00 0.00 0.00 0.00 0.00 0.00 0.00 0.00 0.00 0.00 0.00 0.00 0.00 0.00
0.00 0.00 0.00 0.00 0.00 0.00 0.00 0.00 0.00 0.00 0.00 0.00 0.00 0.00 0.00 0.00 0.00 0.00 0.00 0.00 0.00 0.00 0.00 0.00 0.00 0.00 0.00 0.00 0.00 0.00 0.00 0.00 0.00 0.00 0.00 0.00 0.00 0.00 0.00 0.00 0.00 0.00 0.00 0.00 0.00
0.00 0.00 0.00 0.00 0.00 0.00 0.00 0.00 0.00 0.00 0.00 0.00 0.00 0.00 0.00 0.00 0.00 0.00 0.00 0.00 0.00 0.00 0.00 0.00 0.00 0.00 0.00 0.00 0.00 0.00 0.00 0.00 0.00 0.00 0.00 0.00 0.00 0.00 0.00 0.00 0.00 0.00 0.00 0.00 0.00
0.00 0.00 0.00 0.00 0.00 0.00 0.00 0.00 0.00 0.00 0.00 0.00 0.00 0.00 0.00 0.00 0.00 0.00 0.00 0.00 0.00 0.00 0.00 0.00 0.00 0.00 0.00 0.00 0.00 0.00 0.00 0.00 0.00 0.00 0.00 0.00 0.00 0.00 0.00 0.00 0.00 0.00 0.00 0.00 0.00
0.00 0.00 0.00 0.00 0.00 0.00 0.00 0.00 0.00 0.00 0.00 0.00 0.00 0.00 0.00 0.00 0.00 0.00 0.00 0.00 0.00 0.00 0.00 0.00 0.00 0.00 0.00 0.00 0.00 0.00 0.00 0.00 0.00 0.00 0.00 0.00 0.00 0.00 0.00 0.00 0.00 0.00 0.00 0.00 0.00
0.00 0.00 0.00 0.00 0.00 0.00 0.00 0.00 0.00 0.00 0.00 0.00 0.00 0.00 0.00 0.00 0.00 0.00 0.00 0.00 0.00 0.00 0.00 0.00 0.00 0.00 0.00 0.00 0.00 0.00 0.00 0.00 0.00 0.00 0.00 0.01 0.00 0.00 0.00 0.00 0.02 0.00 0.00 0.00 0.00
0.00 0.00 0.00 0.00 0.00 0.00 0.00 0.00 0.00 0.00 0.00 0.00 0.00 0.00 0.00 0.00 0.00 0.00 0.00 0.00 0.00 0.00 0.00 0.00 0.00 0.00 0.00 0.00 0.00 0.00 0.00 0.00 0.00 0.00 0.00 0.01 0.00 0.00 0.00 0.00 0.01 0.00 0.00 0.00 0.00
0.00 0.00 0.00 0.00 0.00 0.00 0.00 0.00 0.00 0.00 0.00 0.00 0.00 0.00 0.00 0.00 0.00 0.00 0.00 0.00 0.00 0.00 0.00 0.00 0.00 0.00 0.00 0.00 0.00 0.00 0.00 0.00 0.00 0.00 0.00 0.00 0.00 0.00 0.00 0.00 0.00 0.00 0.00 0.00 0.00
MSLP
1017.63 1017.21 1016.77 1016.25 1015.72 1015.09 1014.51 1013.97 1013.47 1012.93 1012.51 1012.24 1011.90 1011.43 1011.03 1010.56 1009.83 1009.72 1008.38 1005.53 1005.37 1005.30 1005.69 1006.08 1006.61 1006.59 1006.84 1006.80 1006.32 1006.49 1007.43 1007.40 1007.03 1006.20 1004.34 1001.64 1000.85 999.88 1000.24 1001.32 1001.43 1001.73 1002.17 1003.30 1004.67
1017.59 1017.16 1016.65 1016.12 1015.52 1014.94 1014.39 1013.84 1013.25 1012.76 1012.33 1011.92 1011.56 1011.26 1010.97 1010.58 1009.90 1008.14 1004.65 1004.45 1004.74 1005.13 1005.59 1005.73 1006.01 1006.44 1006.69 1006.25 1005.90 1006.27 1006.76 1005.81 1005.18 1004.68 1003.80 1002.51 1001.54 1000.38 1000.57 1001.07 1001.64 1001.85 1002.35 1003.73 1004.88
1017.46 1016.93 1016.40 1015.82 1015.22 1014.63 1014.05 1013.52 1012.95 1012.46 1012.06 1011.70 1011.36 1011.02 1010.76 1010.56 1009.46 1005.76 1004.02 1003.78 1004.63 1004.93 1005.07 1005.26 1005.48 1006.00 1006.27 1005.81 1005.47 1005.54 1005.52 1004.49 1003.82 1003.40 1002.91 1002.30 1001.72 1000.67 1000.18 1001.00 1000.96 1001.85 1002.87 1003.46 1004.88
1017.23 1016.63 1016.06 1015.49 1014.86 1014.22 1013.62 1013.08 1012.49 1012.02 1011.69 1011.43 1011.13 1010.83 1010.52 1010.18 1007.96 1004.54 1004.12 1004.22 1004.59 1005.04 1005.30 1005.13 1005.29 1005.86 1005.78 1005.58 1004.69 1005.07 1004.37 1004.02 1003.12 1002.28 1002.25 1002.02 1000.84 1000.02 999.59 999.47 999.91 1001.02 1001.79 1002.69 1003.95
1016.94 1016.32 1015.66 1015.05 1014.45 1013.79 1013.15 1012.58 1012.01 1011.57 1011.26 1011.09 1010.83 1010.62 1010.32 1009.34 1006.33 1003.98 1004.19 1004.46 1004.82 1005.12 1005.13 1005.14 1005.23 1005.38 1005.38 1005.00 1004.75 1004.56 1004.03 1003.38 1002.53 1001.97 1001.30 1000.75 1000.41 1000.07 999.34 998.50 999.93 1000.93 1001.68 1002.20 1003.10
1016.85 1016.17 1015.42 1014.71 1013.98 1013.36 1012.65 1012.00 1011.45 1011.09 1010.91 1010.67 1010.53 1010.52 1009.98 1007.99 1003.97 1003.72 1004.25 1004.59 1004.70 1004.97 1004.83 1004.86 1004.71 1004.77 1005.00 1004.84 1004.87 1004.31 1003.92 1003.23 1002.32 1001.62 1001.21 1001.22 1000.40 1000.30 998.69 998.29 999.85 1000.56 1001.07 1001.84 1002.14
1016.60 1015.92 1015.18 1014.42 1013.52 1012.79 1012.08 1011.39 1010.77 1010.43 1010.28 1010.17 1010.17 1010.07 1009.18 1005.94 1003.73 1003.76 1004.15 1003.98 1003.87 1004.23 1004.48 1004.19 1004.29 1004.78 1004.74 1004.88 1004.41 1004.28 1004.32 1003.44 1002.18 1001.77 1001.47 1001.28 1000.18 999.77 998.39 997.78 998.82 999.93 1000.64 1001.44 1002.26
1016.63 1015.83 1014.97 1014.11 1013.12 1012.20 1011.42 1010.67 1010.02 1009.70 1009.53 1009.68 1009.89 1009.66 1007.52 1003.83 1003.92 1003.85 1003.86 1003.83 1003.67 1003.82 1003.91 1003.61 1003.95 1004.53 1004.73 1004.81 1004.83 1005.00 1004.90 1004.33 1002.15 1001.71 1001.11 1001.41 1000.66 999.17 998.25 997.51 998.35 999.36 1000.26 1001.06 1001.62
1016.49 1015.66 1014.66 1013.59 1012.74 1011.67 1010.80 1009.78 1009.03 1008.89 1009.12 1009.40 1009.70 1009.14 1006.17 1003.43 1003.20 1002.69 1003.12 1003.52 1003.31 1003.52 1003.64 1003.46 1003.97 1004.51 1004.80 1005.41 1006.01 1006.00 1005.69 1004.65 1003.06 1001.29 1000.87 1000.73 1000.62 999.30 998.35 998.26 998.80 999.30 999.82 1000.23 1000.89
1016.32 1015.39 1014.39 1013.29 1012.44 1011.26 1010.14 1009.00 1008.93 1008.83 1009.22 1009.12 1008.61 1008.42 1005.30 1003.47 1002.56 1002.31 1002.28 1002.65 1003.21 1003.41 1003.67 1003.77 1004.34 1004.89 1005.58 1006.34 1006.62 1006.00 1005.77 1004.69 1003.49 1001.68 1001.17 1000.71 1000.26 999.52 998.77 998.51 998.34 998.73 999.23 999.56 1000.03
1016.11 1015.26 1014.26 1013.12 1012.00 1011.37 1010.04 1009.12 1009.55 1008.92 1008.52 1007.93 1007.36 1006.55 1004.77 1002.99 1002.02 1002.13 1002.17 1002.53 1002.85 1003.40 1004.07 1004.31 1005.20 1005.38 1004.95 1005.32 1005.18 1005.40 1005.33 1004.72 1003.23 1002.13 1001.67 1001.28 1000.70 999.66 998.84 998.69 998.57 998.32 999.26 999.26 999.19
1015.92 1015.08 1014.03 1012.91 1011.51 1010.90 1010.74 1010.12 1009.60 1009.30 1008.34 1006.66 1005.78 1005.52 1004.05 1003.39 1002.63 1002.13 1002.10 1002.84 1003.28 1003.85 1004.25 1004.99 1005.11 1004.16 1004.05 1004.24 1004.70 1004.67 1004.69 1003.98 1002.97 1001.80 1001.57 1001.54 1001.30 1000.12 999.33 999.12 998.87 998.71 998.39 998.57 998.64
1015.91 1014.97 1014.02 1012.47 1011.12 1010.70 1010.76 1009.55 1008.68 1008.52 1008.71 1005.82 1004.46 1003.71 1002.97 1002.77 1002.54 1001.97 1002.22 1002.46 1003.15 1003.90 1004.33 1004.92 1003.93 1003.36 1003.57 1003.43 1003.61 1003.51 1003.79 1003.26 1002.83 1002.17 1001.94 1001.96 1001.81 1001.03 999.88 999.38 999.04 999.22 999.07 998.37 997.85
1015.74 1014.94 1014.24 1012.71 1011.26 1011.95 1010.35 1008.94 1008.56 1008.45 1008.44 1005.53 1003.75 1002.44 1002.27 1002.34 1002.17 1001.41 1001.73 1002.10 1002.69 1003.33 1003.64 1003.87 1002.99 1002.96 1002.65 1002.69 1002.55 1002.57 1002.32 1002.50 1002.83 1003.20 1003.37 1002.94 1003.29 1002.65 1002.08 1001.75 1001.76 1001.92 1001.03 1000.41 999.94
1015.35 1014.90 1014.31 1014.14 1013.38 1012.08 1009.72 1008.89 1008.65 1008.56 1007.46 1004.46 1002.88 1001.67 1001.96 1002.51 1002.07 1001.46 1001.13 1001.78 1002.61 1003.14 1003.76 1003.69 1003.21 1002.70 1002.60 1002.71 1002.48 1002.59 1002.35 1003.02 1003.49 1004.27 1004.66 1004.09 1004.77 1004.86 1004.28 1003.94 1004.07 1003.78 1003.42 1002.76 1001.71
1015.03 1014.51 1014.36 1013.83 1013.37 1010.59 1009.55 1009.10 1008.83 1008.78 1006.06 1003.95 1002.75 1002.35 1002.57 1002.35 1001.95 1001.64 1001.68 1001.94 1002.40 1003.06 1003.43 1003.54 1003.21 1003.43 1003.27 1002.74 1002.77 1002.71 1003.06 1003.61 1004.44 1005.49 1006.44 1005.44 1005.68 1006.38 1006.11 1005.73 1004.96 1004.99 1004.54 1003.53 1002.92
1014.70 1013.83 1014.09 1013.31 1011.42 1009.72 1009.73 1009.60 1009.52 1007.94 1005.49 1004.59 1003.76 1003.29 1003.10 1002.65 1002.16 1002.14 1002.24 1002.68 1003.23 1004.04 1004.37 1004.10 1004.09 1003.79 1003.39 1003.26 1002.82 1003.35 1004.53 1005.79 1006.49 1007.19 1007.28 1005.95 1006.18 1006.37 1006.19 1005.48 1005.45 1005.37 1005.25 1004.82 1003.86
1014.24 1013.03 1012.36 1011.58 1010.12 1010.28 1010.33 1010.08 1009.26 1007.40 1006.09 1005.09 1004.51 1003.87 1003.78 1003.16 1002.71 1002.51 1002.64 1003.16 1003.64 1004.41 1005.33 1005.48 1004.89 1004.51 1004.29 1004.81 1004.92 1004.95 1005.73 1007.22 1007.74 1008.21 1007.63 1006.29 1006.07 1005.59 1005.35 1005.31 1005.58 1005.06 1005.16 1005.44 1005.18
1013.89 1012.50 1011.95 1009.75 1009.82 1010.54 1010.91 1010.70 1009.16 1007.33 1006.26 1005.71 1005.09 1004.98 1004.78 1004.18 1003.90 1003.56 1003.60 1004.05 1004.53 1004.79 1005.64 1006.08 1005.78 1005.03 1004.88 1004.92 1005.24 1005.63 1006.30 1006.71 1007.72 1008.30 1008.26 1007.39 1006.22 1005.42 1005.07 1005.64 1005.36 1005.19 1005.21 1005.78 1005.63
1014.96 1013.60 1011.23 1008.66 1009.46 1010.50 1011.21 1010.79 1008.75 1007.03 1006.18 1005.89 1006.16 1006.14 1006.22 1005.89 1005.41 1005.09 1004.68 1004.90 1005.26 1005.40 1005.61 1006.68 1006.93 1006.32 1005.69 1005.38 1005.52 1006.39 1006.42 1007.04 1008.33 1009.33 1009.43 1008.19 1007.03 1006.19 1005.50 1005.61 1005.93 1005.62 1005.76 1006.37 1006.08
1015.13 1013.89 1009.67 1008.76 1009.52 1011.09 1011.68 1010.46 1008.56 1006.93 1006.01 1006.12 1006.33 1006.56 1006.61 1006.64 1006.38 1006.00 1005.70 1005.43 1005.25 1005.68 1006.04 1007.04 1007.92 1007.82 1007.13 1007.15 1007.10 1006.63 1006.99 1007.84 1009.13 1009.68 1009.90 1009.02 1007.71 1005.87 1006.06 1006.68 1006.83 1006.14 1006.15 1006.45 1005.46
1016.11 1014.50 1009.62 1009.42 1010.72 1011.64 1011.59 1009.99 1008.52 1007.02 1006.10 1006.03 1006.22 1006.55 1006.99 1006.89 1006.80 1006.58 1006.17 1005.68 1005.54 1005.60 1006.49 1007.13 1008.29 1009.04 1008.57 1007.35 1007.34 1007.13 1007.68 1008.48 1009.93 1010.17 1010.00 1009.46 1007.76 1006.88 1006.91 1006.99 1006.76 1006.41 1006.27 1006.42 1006.15
1017.42 1015.09 1010.18 1010.09 1011.66 1012.29 1011.38 1010.17 1008.96 1008.07 1006.92 1006.57 1006.66 1006.92 1007.15 1007.47 1007.62 1007.00 1006.38 1005.76 1005.76 1005.99 1006.90 1007.73 1009.00 1009.63 1009.28 1008.41 1007.53 1007.51 1007.44 1007.96 1008.80 1009.53 1009.86 1009.84 1008.27 1007.44 1007.68 1007.37 1006.80 1006.27 1005.50 1005.52 1006.18
1018.02 1016.16 1012.83 1011.97 1012.49 1012.67 1012.32 1010.99 1009.67 1008.34 1007.49 1007.34 1007.13 1006.94 1007.30 1007.61 1007.69 1007.74 1007.27 1006.73 1006.67 1007.04 1007.67 1008.17 1009.85 1010.51 1010.60 1009.95 1009.20 1008.38 1007.61 1007.33 1008.06 1009.28 1009.24 1009.16 1008.65 1007.90 1008.09 1007.81 1007.08 1006.41 1006.19 1005.66 1005.75
1018.33 1016.88 1015.05 1014.46 1013.80 1013.42 1012.77 1011.62 1010.52 1009.29 1008.25 1007.91 1007.81 1007.64 1007.94 1008.28 1008.53 1008.72 1008.43 1008.11 1007.66 1007.82 1008.33 1009.15 1010.39 1010.45 1010.17 1009.54 1008.91 1008.38 1007.85 1007.66 1007.97 1008.62 1009.10 1008.85 1008.62 1008.15 1008.16 1007.78 1007.23 1006.81 1006.61 1006.45 1006.29
1018.46 1017.40 1016.07 1015.51 1014.61 1013.90 1013.01 1012.16 1011.21 1010.01 1009.45 1008.44 1008.46 1008.44 1008.47 1008.93 1009.31 1009.40 1009.45 1009.50 1009.17 1008.72 1009.38 1009.77 1010.40 1010.50 1010.15 1009.31 1008.80 1008.30 1007.91 1007.79 1008.00 1008.40 1008.71 1008.79 1008.51 1008.16 1008.23 1008.23 1007.72 1007.07 1006.87 1006.68 1006.09
1018.12 1017.39 1017.13 1016.02 1015.34 1014.77 1013.70 1013.09 1011.98 1010.89 1009.51 1008.66 1008.46 1008.52 1008.74 1008.81 1008.91 1009.08 1009.43 1009.57 1009.55 1009.72 1009.92 1010.30 1010.58 1010.89 1010.39 1009.66 1009.18 1008.63 1008.12 1008.07 1008.14 1008.51 1008.72 1008.71 1008.37 1007.93 1007.95 1008.27 1008.30 1007.65 1007.40 1006.94 1005.89
Thickness
5783 5787 5791 5795 5798 5803 5807 5810 5813 5816 5818 5819 5820 5823 5825 5828 5835 5834 5837 5863 5866 5869 5864 5856 5847 5844 5842 5831 5839 5837 5790 5781 5790 5795 5815 5858 5853 5876 5879 5853 5862 5866 5857 5852 5849
5783 5787 5791 5795 5799 5802 5806 5809 5812 5815 5818 5821 5823 5824 5826 5827 5831 5837 5874 5874 5871 5868 5857 5847 5837 5836 5821 5826 5830 5811 5784 5799 5818 5821 5819 5839 5848 5858 5858 5850 5851 5854 5863 5855 5845
5784 5788 5792 5796 5800 5803 5807 5810 5814 5817 5820 5822 5824 5826 5827 5828 5830 5851 5879 5880 5872 5869 5864 5857 5849 5837 5818 5828 5825 5816 5798 5825 5830 5835 5835 5834 5840 5859 5856 5841 5852 5843 5848 5851 5842
5785 5789 5793 5797 5801 5805 5809 5813 5817 5820 5823 5825 5826 5828 5829 5830 5815 5869 5877 5876 5873 5868 5859 5853 5844 5824 5817 5813 5832 5810 5826 5829 5838 5845 5836 5828 5849 5852 5862 5865 5875 5864 5862 5857 5847
5785 5790 5794 5798 5802 5807 5812 5817 5821 5824 5827 5827 5828 5829 5831 5827 5838 5878 5876 5873 5870 5863 5853 5846 5835 5829 5815 5824 5826 5819 5827 5835 5843 5844 5848 5854 5847 5847 5858 5883 5875 5866 5859 5856 5850
5784 5789 5794 5799 5805 5810 5815 5821 5825 5828 5829 5830 5830 5830 5832 5818 5880 5881 5876 5870 5865 5858 5854 5850 5841 5843 5827 5826 5819 5831 5829 5832 5841 5843 5845 5836 5844 5850 5869 5884 5865 5860 5857 5855 5855
5783 5789 5794 5799 5807 5813 5819 5825 5830 5832 5833 5833 5832 5833 5830 5838 5881 5880 5875 5872 5872 5864 5849 5857 5854 5837 5833 5819 5835 5829 5813 5823 5836 5837 5832 5841 5831 5838 5870 5880 5867 5859 5856 5853 5850
5780 5787 5793 5800 5809 5817 5824 5830 5834 5836 5837 5835 5833 5832 5828 5880 5880 5875 5874 5868 5873 5869 5862 5864 5858 5839 5830 5833 5819 5808 5805 5784 5827 5834 5837 5827 5802 5848 5868 5872 5862 5860 5855 5851 5849
5778 5785 5794 5802 5810 5819 5826 5834 5840 5840 5837 5834 5831 5829 5829 5881 5867 5880 5877 5861 5866 5865 5862 5864 5851 5830 5825 5801 5777 5784 5768 5783 5803 5839 5834 5825 5807 5843 5862 5862 5855 5852 5852 5851 5849
5777 5784 5793 5802 5810 5820 5829 5838 5837 5837 5832 5833 5835 5821 5847 5851 5869 5875 5879 5870 5855 5854 5845 5840 5822 5804 5791 5776 5747 5769 5771 5781 5788 5824 5824 5817 5815 5837 5850 5853 5855 5853 5851 5851 5849
5776 5782 5791 5801 5810 5815 5826 5833 5820 5820 5828 5822 5826 5828 5842 5865 5878 5865 5871 5859 5853 5840 5811 5823 5795 5777 5793 5792 5800 5790 5778 5774 5797 5816 5806 5806 5807 5827 5844 5849 5847 5853 5840 5847 5851
5774 5781 5790 5799 5811 5815 5816 5815 5814 5815 5801 5833 5836 5833 5848 5855 5840 5851 5866 5834 5825 5802 5814 5798 5777 5807 5813 5809 5794 5787 5772 5771 5791 5813 5808 5797 5796 5821 5834 5838 5844 5846 5851 5848 5853
5770 5778 5786 5798 5810 5812 5808 5814 5827 5825 5791 5820 5838 5837 5840 5848 5833 5840 5847 5835 5818 5801 5799 5781 5800 5821 5809 5802 5790 5786 5772 5777 5780 5798 5803 5792 5779 5794 5822 5832 5843 5842 5842 5847 5849
5767 5774 5779 5792 5801 5793 5801 5819 5822 5820 5765 5801 5820 5834 5843 5841 5823 5857 5851 5837 5819 5803 5806 5795 5816 5808 5802 5799 5802 5782 5808 5801 5789 5770 5746 5787 5735 5775 5781 5790 5796 5794 5807 5815 5821
5765 5768 5773 5774 5778 5784 5805 5813 5815 5802 5745 5813 5820 5857 5843 5820 5828 5834 5857 5833 5802 5801 5804 5786 5796 5796 5792 5794 5802 5784 5805 5789 5784 5763 5750 5762 5736 5739 5758 5758 5765 5774 5784 5794 5804
5761 5765 5766 5770 5772 5794 5803 5806 5799 5755 5748 5796 5820 5814 5809 5816 5819 5832 5830 5836 5825 5806 5807 5796 5813 5800 5794 5802 5800 5803 5784 5770 5760 5737 5710 5741 5732 5714 5727 5739 5758 5763 5772 5783 5789
5758 5765 5762 5768 5778 5796 5796 5786 5746 5736 5791 5783 5793 5800 5797 5796 5805 5807 5805 5793 5775 5762 5761 5783 5784 5794 5797 5777 5790 5780 5750 5709 5702 5700 5699 5739 5724 5716 5739 5749 5753 5754 5760 5765 5776
5756 5765 5770 5776 5789 5787 5781 5759 5734 5766 5768 5791 5787 5787 5780 5794 5798 5799 5794 5776 5784 5773 5747 5745 5741 5772 5783 5767 5754 5754 5745 5700 5686 5681 5705 5733 5721 5724 5751 5754 5753 5757 5757 5755 5758
5752 5763 5766 5783 5784 5777 5757 5723 5736 5759 5774 5770 5774 5765 5762 5777 5781 5781 5778 5767 5769 5773 5744 5733 5743 5777 5775 5774 5763 5746 5725 5740 5709 5708 5692 5704 5724 5742 5749 5740 5745 5747 5746 5741 5744
5732 5743 5755 5783 5778 5762 5732 5720 5743 5771 5776 5767 5742 5752 5739 5747 5750 5755 5760 5764 5759 5768 5769 5748 5722 5754 5766 5766 5761 5736 5742 5710 5693 5676 5671 5685 5701 5698 5725 5725 5722 5732 5734 5726 5735
5726 5725 5763 5774 5767 5734 5709 5717 5745 5770 5776 5757 5746 5742 5745 5742 5743 5739 5745 5757 5765 5760 5757 5743 5722 5725 5743 5726 5718 5722 5708 5708 5694 5679 5664 5653 5678 5718 5718 5710 5707 5717 5723 5718 5732
5704 5704 5759 5762 5722 5709 5710 5734 5749 5753 5767 5761 5758 5748 5739 5741 5739 5740 5740 5749 5764 5761 5739 5743 5712 5698 5715 5735 5735 5724 5719 5694 5664 5667 5668 5661 5671 5711 5711 5710 5711 5713 5718 5717 5715
5682 5693 5747 5745 5698 5697 5714 5728 5739 5736 5744 5745 5742 5742 5742 5731 5720 5733 5740 5759 5755 5746 5732 5732 5698 5675 5686 5706 5722 5715 5715 5706 5684 5666 5665 5650 5662 5701 5697 5699 5708 5711 5719 5718 5712
5672 5675 5706 5713 5706 5705 5698 5707 5712 5736 5736 5736 5736 5740 5731 5722 5726 5718 5724 5740 5744 5741 5733 5723 5689 5681 5661 5676 5690 5691 5706 5712 5695 5661 5672 5661 5669 5685 5682 5687 5698 5704 5706 5712 5708
5660 5669 5684 5672 5682 5687 5694 5700 5701 5704 5724 5725 5718 5723 5716 5706 5701 5698 5706 5713 5728 5728 5720 5705 5681 5690 5686 5692 5695 5693 5695 5698 5683 5677 5663 5669 5670 5678 5677 5681 5691 5698 5699 5696 5692
5647 5656 5664 5663 5672 5678 5681 5686 5690 5699 5703 5704 5704 5706 5703 5693 5696 5689 5692 5694 5695 5708 5697 5692 5673 5681 5674 5691 5691 5686 5690 5689 5685 5679 5674 5671 5668 5680 5679 5675 5679 5686 5688 5689 5693
5641 5647 5647 5652 5658 5660 5662 5669 5678 5687 5700 5711 5704 5696 5690 5694 5701 5700 5695 5691 5691 5689 5685 5678 5669 5659 5656 5675 5673 5664 5673 5677 5674 5669 5665 5657 5668 5677 5673 5670 5666 5671 5674 5678 5690